Regional Weather Roundup
Issued by NWS

Home | Current Version | Previous Version | Graphics & Text | Print | Product List | Glossary On
Versions: 1 2 3 4 5 6 7 8 9 10 11 12 13 14 15 16 17 18 19 20 21 22 23 24 25 26 27 28 29 30 31 32 33 34 35 36 37 38 39 40 41 42 43 44 45 46 47 48 49 50
000
ASUS45 KTFX 020819
RWRMT
MONTANA HOURLY WEATHER ROUNDUP
NATIONAL WEATHER SERVICE GREAT FALLS MT
219 AM MDT TUE SEP 2 2014

NOTE: "FAIR" INDICATES FEW OR NO CLOUDS BELOW 12000 FEET WITH NO
SIGNIFICANT WEATHER AND/OR OBSTRUCTIONS TO VISIBILITY.

* THESE STATIONS ARE NOT UNDER NWS QUALITY CONTROL. THEY DO NOT
   REPORT WEATHER SUCH AS PRECIPITATION OR FOG.

MTZ001>007-043-020900-
WEST OF THE DIVIDE
CITY           SKY/WX    TMP DP  RH WIND       PRES   REMARKS
KALISPELL      MOCLDY    46  43  89 N3        29.94S
MISSOULA       CLEAR     46  39  77 CALM      30.00F
BUTTE          CLEAR     43  36  76 SE6       30.07F
MULLAN PASS    PTCLDY    46  36  68 SW7       30.03F
* LINCOLN      N/A       46  37  71 W2G8       N/A
* LOOKOUT PASS N/A       43  38  83 SE1        N/A
* POLSON       N/A       49  38  66 SE2        N/A
* RONAN APT    PTCLDY    48  43  83 N/A        N/A
* SEELEY LAKE  N/A       39  37  93 NE1        N/A
* THOMP F APT  PTCLDY    48  36  63 N4         N/A
$$

MTZ008-052>055-020900-
SOUTHWEST MONTANA
CITY           SKY/WX    TMP DP  RH WIND       PRES   REMARKS
BOZEMAN        CLEAR     45  39  80 S7        30.00S
DILLON         CLEAR     50  37  61 S8        30.04R
W YELLOWSTONE  CLEAR     45  36  71 CALM      30.14S
* THREE FORKS  CLEAR     46  28  50 N/A        N/A
* BOULDER HILL N/A       51  30  45 S3G10      N/A
* MONIDA PASS  N/A       45  36  71 SE9        N/A
* RAYNOLDS PAS N/A       44  24  45 SE12G19    N/A
* WHITEHALL    N/A       52  37  57 NW6        N/A
* WISE RIVER   N/A       41  32  70 NE1        N/A
$$

MTZ009>010-012-014-046-048-049-054-020900-
EAST SLOPES AND CENTRAL MONTANA
CITY           SKY/WX    TMP DP  RH WIND       PRES   REMARKS
CUT BANK       MOCLDY    50  37  61 SW8       29.88F
GREAT FALLS    PTCLDY    52  37  57 SW8       29.91F
HELENA         PTCLDY    57  37  47 SE7       29.96F
MALMSTROM AFB  PTCLDY    57  36  46 W14G21    29.92S
* CONRAD       MOCLDY    48  39  71 S7         N/A
* EAST GLACIER N/A       52  36  55 W12G17     N/A
* MONARCH      N/A       52  27  38 W13G18     N/A
* PENDROY      N/A       49  34  56 SW5        N/A
* ROGERS PASS  N/A       50  35  57 SE13G33    N/A
* SAINT MARY   N/A       54  37  53 S7G18      N/A
* SWEET GRASS  N/A       54  35  49 W16        N/A
* WHITE SULPH  N/A       47  35  63 N3G8       N/A
$$

MTZ011-013-016-021-035-040-045-047-050-051-020900-
NORTH CENTRAL MONTANA
CITY           SKY/WX    TMP DP  RH WIND       PRES   REMARKS
HAVRE          PTCLDY    52  39  61 SW9       29.83R
LEWISTOWN      CLEAR     45  37  74 SE5       29.93F
* CHINOOK      PTCLDY    52  43  72 CALM      29.82S
* FORT BENTON  PTCLDY    54  37  53 SW7       29.88F
* CHESTER      N/A       54  38  55 W8         N/A
* DENTON       N/A       45  40  83 SW4        N/A
* GEYSER       N/A       46  37  71 W11        N/A
* JUDITH GAP   N/A       49  36  61 W4         N/A
* LOMA         N/A       52  39  61 SW3        N/A
$$

MTZ017>020-022>027-061-062-020900-
NORTHEAST MONTANA
CITY           SKY/WX    TMP DP  RH WIND       PRES   REMARKS
GLASGOW        PTCLDY    59  46  62 W10       29.79S
GLENDIVE       MOCLDY    52  46  80 S6        29.85F
JORDAN         PTCLDY    54  45  72 NW9       29.85S
SIDNEY         CLOUDY    54  48  80 S8        29.82F
WOLF POINT     MOCLDY    59  48  67 CALM      29.79F
* BEAVER HILL  N/A       56  44  64 S12        N/A
* CIRCLE       N/A       56  46  69 SW3G10     N/A
* LINDSAY DVD  N/A       56  44  64 SW9        N/A
* NAVAJO       N/A       54  46  74 SW11       N/A
$$

MTZ028>042-056>058-020900-
SOUTHCENTRAL AND SOUTHEAST MONTANA
CITY           SKY/WX    TMP DP  RH WIND       PRES   REMARKS
BAKER          PTCLDY    55  45  69 SW10      29.90F
BILLINGS       CLEAR     55  39  55 CALM      29.93S
LIVINGSTON     CLEAR     46  37  71 VRB3      29.99S
MILES CITY     CLEAR     50  43  77 S9        29.87F
* LAUREL APT   CLEAR     52  39  61 N/A        N/A
* ROUNDUP APT  CLEAR     54  39  57 N/A        N/A
* ALZADA       N/A       46  42  86 E4         N/A
* HYSHAM       N/A       57  31  37 W3         N/A
* LAME DEER    N/A       54  40  59 S10        N/A
* REED POINT   N/A       47  42  83 N/A        N/A
* ROSCOE HILL  N/A       58  29  33 VRB2G8     N/A
$$

REGIONAL REPORTS...DAKOTAS
CITY           SKY/WX    TMP DP  RH WIND       PRES   REMARKS
WILLISTON      LGT RAIN  55  52  90 SW6       29.80F
DICKINSON      MOCLDY    52  46  80 S9        29.85F
BEACH          N/A       54  46  74 SW12      29.87F
CROSBY         RAIN      54  54 100 S8        29.78F
TIOGA          HVY RAIN  55  55 100 CALM      29.82F
WATFORD CITY   MOCLDY    54  50  86 SW5       29.79F
BISMARCK       PTCLDY    54  48  80 W5        29.86S
GRAND FORKS    CLEAR     55  48  77 SW7       29.76R
FARGO          CLEAR     54  52  93 SW8       29.81S
BUFFALO SD     CLEAR     50  45  83 W9        29.86F
RAPID CITY     CLEAR     48  43  83 CALM      29.99F
$$

REGIONAL REPORTS...WYOMING/IDAHO/WASHINGTON
CITY           SKY/WX    TMP DP  RH WIND       PRES   REMARKS
GILLETTE       CLEAR     48  43  83 S12       30.03R
SHERIDAN       CLEAR     52  43  72 S9        29.97F
CODY           CLEAR    N/A N/A N/A N/A        N/A
YELLOWSTONE LA PTCLDY    32  30  92 NW3       30.22F
SALMON         CLEAR     46  43  89 CALM      30.03S
MULLAN PASS    PTCLDY    46  36  68 SW7       30.03S
SAND POINT     MOCLDY    46  46 100 CALM      29.91F
SPOKANE        MOCLDY    55  39  55 S8        29.91F
$$

REGIONAL REPORTS...ALBERTA
CITY           SKY/WX    TMP DP  RH WIND       PRES   REMARKS
CALGARY        MOCLDY    50  41  71 S6        29.81F
LETHBRIDGE     PTCLDY    54  41  62 VRB6      29.84R
MEDICINE HAT   CLEAR     52  46  80 S6        29.79S
EDMONTON       MOCLDY    46  45  96 SW5       29.74F
WATERTON GATE  N/A       55  37  51 SW14G24    N/A
CARDSTON       N/A       55  39  55 W3         N/A
MILK RIVER     N/A       50  39  66 W9         N/A
$$

REGIONAL REPORTS...SASKATCHEWAN
CITY           SKY/WX    TMP DP  RH WIND       PRES   REMARKS
SWIFT CURRENT  CLOUDY    54  45  72 W8        29.74S
REGINA         N/A       52  46  80 S9        29.71F
VAL MARIE      N/A       52  43  72 W9         N/A
ASSINIBOIA     N/A       50  46  86 SW7        N/A
CORONACH       N/A       54  46  74 SW3        N/A

$$



USA.gov is the U.S. government's official web portal to all federal, state and local government web resources and services.